Weather History for CWEU - October, 2012

Change the Weather History Date:

Saturday, October 20, 2012

  Actual Average Record
Temperature  
Mean Temperature -14 °F -  
Max Temperature -12 °F -13 °F 26 °F (2005)
Min Temperature -17 °F -26 °F -29 °F (2014)
Degree Days  
Heating Degree Days 80    
Moisture  
Dew Point -22 °F    
Average Humidity 67    
Maximum Humidity 70    
Minimum Humidity 51    
Precipitation  
Precipitation 0.00 in 0.01 in - ()
Sea Level Pressure  
Sea Level Pressure 30.22 in    
Wind  
Wind Speed 1 mph ()    
Max Wind Speed 4 mph    
Max Gust Speed -    
Visibility 15.0 miles    
Events      
Averages and records for this station are not official NWS values.
T = Trace of Precipitation, MM = Missing Value Source: Averaged Metar Reports

Daily Weather History Graph

Daily Weather History Graph

Search for Another Location

Airport or City:

Trip Planner

Search our weather history database for the weather conditions in past years. The results will help you decide how hot, cold, wet, or windy it might be!

Date:

Astronomy

Oct. 20, 2012 Rise Set
Actual Time 11:42 AM CDT 1:11 PM CDT
Civil Twilight 8:14 AM CDT 4:38 PM CDT
Nautical Twilight 5:51 AM CDT 7:00 PM CDT
Astronomical Twilight 3:12 AM CDT 9:35 PM CDT
Moon No Moon Rise No Moon Set
Length of Visible Light 8h 23m
Length of Day
1h 29m
Waxing Crescent, 34% of the Moon is Illuminated
Oct 20
Waxing Crescent
Oct 21
First Quarter
Oct 29
Full
Nov 6
Last Quarter
Nov 13
New

Hourly Weather History & Observations

Time (CDT) Temp. Windchill Dew Point Humidity Pressure Visibility Wind Dir Wind Speed Gust Speed Precip Events Conditions
1:00 AM -14 °F - -21 °F 57% 30.13 in 15 mi ESE 2.3 mph - -  
1:00 AM -13.0 °F - -20.2 °F 70% 30.13 in 15.0 mi ESE 2.3 mph - N/A   Clear
2:00 AM -13.0 °F - -20.2 °F 70% 30.14 in 15.0 mi ESE 2.3 mph - N/A   Clear
3:00 AM -13.0 °F - -20.2 °F 70% 30.15 in 15.0 mi Calm Calm - N/A   Clear
4:00 AM -13.0 °F - -20.2 °F 70% 30.16 in 15.0 mi Calm Calm - N/A   Clear
5:00 AM -14.8 °F - -23.8 °F 64% 30.17 in 15.0 mi Calm Calm - N/A   Clear
6:00 AM -16.6 °F - -23.8 °F 70% 30.17 in 15.0 mi Calm Calm - N/A   Partly Cloudy
7:00 AM -16 °F - -23 °F 55% 30.17 in 37 mi East 2.3 mph - -   Scattered Clouds
7:00 AM -14.8 °F - -23.8 °F 64% 30.17 in 40.0 mi East 2.3 mph - N/A   Partly Cloudy
8:00 AM -13.0 °F - -20.2 °F 70% 30.18 in 40.0 mi East 2.3 mph - N/A   Partly Cloudy
9:00 AM -13.0 °F - -20.2 °F 70% 30.19 in 40.0 mi East 2.3 mph - N/A   Partly Cloudy
10:00 AM -14.8 °F - -22.0 °F 70% 30.20 in 40.0 mi Calm Calm - N/A   Partly Cloudy
11:00 AM -14.8 °F - -22.0 °F 70% 30.21 in 40.0 mi Calm Calm - N/A   Partly Cloudy
12:00 PM -16.6 °F - -23.8 °F 70% 30.22 in 40.0 mi Calm Calm - N/A   Partly Cloudy
1:00 PM -16 °F - -24 °F 51% 30.24 in 37 mi Calm Calm - -   Scattered Clouds
1:00 PM -16.6 °F - -23.8 °F 70% 30.24 in 40.0 mi Calm Calm - N/A   Partly Cloudy
2:00 PM -13.0 °F - -20.2 °F 70% 30.25 in 40.0 mi Calm Calm - N/A   Partly Cloudy
3:00 PM -14.8 °F - -22.0 °F 70% 30.26 in 40.0 mi East 2.3 mph - N/A   Partly Cloudy
4:00 PM -16.6 °F - -23.8 °F 70% 30.28 in 40.0 mi Calm Calm - N/A   Clear
5:00 PM -14.8 °F -24.8 °F -23.8 °F 64% 30.29 in 15.0 mi ESE 3.5 mph - N/A   Clear
6:00 PM -16.6 °F - -23.8 °F 70% 30.31 in 15.0 mi Calm Calm - N/A   Clear
7:00 PM -16 °F - -23 °F 55% 30.32 in 15 mi SE 3.5 mph - -   Clear
7:00 PM -14.8 °F -24.8 °F -23.8 °F 64% 30.32 in 15.0 mi SE 3.5 mph - N/A   Partly Cloudy
8:00 PM -13.0 °F - -20.2 °F 70% 30.33 in 15.0 mi East 2.3 mph - N/A   Clear
9:00 PM -14.8 °F -24.8 °F -22.0 °F 70% 30.35 in 15.0 mi East 3.5 mph - N/A   Clear